Temperature
14 14 14 14 14 14 13 13 13 13 13 13 13 13 13 13 13 13 13 13 13 13 13 13 13 13 13 13 13 13 13 13 13 12 12 12 12 12 12 12 12 12 12
14 14 14 14 14 13 13 13 13 13 13 13 13 13 13 13 13 13 13 13 13 13 13 13 13 13 13 13 13 13 13 12 13 12 12 12 12 11 12 12 12 12 11
14 14 14 13 13 13 13 13 13 13 13 13 13 13 13 13 13 13 12 12 12 13 13 13 12 12 12 12 12 12 12 12 12 12 12 12 12 12 12 12 11 11 11
14 13 13 13 13 13 13 13 13 13 13 13 13 13 13 13 13 12 12 12 12 12 12 12 12 12 12 12 12 12 12 12 12 12 12 12 11 11 11 11 11 11 11
13 13 13 13 13 13 13 13 13 13 13 12 12 12 12 12 12 12 12 12 12 12 12 12 12 12 12 12 12 12 12 12 12 11 11 11 11 11 11 11 11 11 11
13 13 13 12 12 12 12 12 12 12 12 12 12 12 12 12 12 12 12 12 12 12 12 12 12 12 12 12 12 12 12 12 11 11 11 11 11 11 11 11 11 11 10
12 12 12 12 12 12 12 12 12 12 12 12 12 12 12 12 12 12 12 11 11 11 11 11 11 12 12 11 11 12 12 12 12 11 11 11 11 11 11 10 10 10 10
12 12 12 12 11 12 12 11 11 12 12 12 12 12 12 12 12 11 11 11 11 11 11 11 11 11 11 11 11 11 11 11 11 11 11 11 11 11 11 10 10 10 10
11 11 11 11 11 11 11 11 11 11 11 11 11 11 11 11 11 11 11 11 11 11 11 11 11 11 11 11 11 11 11 11 11 11 11 11 11 11 11 10 10 10 10
11 11 11 11 11 11 11 10 10 10 11 11 11 11 11 10 11 11 10 10 10 10 10 10 11 11 11 11 10 10 10 10 10 10 10 10 10 10 10 10 10 9 9
11 11 11 11 10 10 10 10 10 10 10 10 10 10 10 10 10 10 10 10 10 10 10 10 10 10 10 10 10 10 10 10 10 10 10 10 10 10 10 9 9 9 9
10 10 10 10 10 10 10 10 10 9 9 9 9 9 9 10 10 10 10 10 10 9 9 9 10 10 10 10 10 10 10 9 9 9 9 9 9 9 9 9 9 9 8
10 10 10 10 10 10 9 9 9 9 9 9 9 9 9 9 9 9 9 9 9 9 9 9 9 9 9 9 9 9 9 9 9 9 9 9 9 8 8 8 8 8 8
9 10 9 9 9 9 9 9 9 8 8 8 8 8 8 8 8 8 8 8 9 9 9 9 9 9 9 9 9 9 8 8 8 8 8 8 8 8 8 8 8 8 8
9 9 9 9 9 9 9 8 8 8 8 8 8 8 8 8 8 8 8 8 8 8 8 8 8 8 8 8 8 8 8 8 8 7 7 7 7 7 7 7 7 7 7
9 9 9 8 8 8 8 8 8 8 8 8 8 7 7 8 8 8 8 8 8 8 8 7 7 7 7 7 7 7 7 7 7 7 7 7 7 7 7 7 6 6 6
8 8 8 8 8 8 8 8 8 8 7 7 7 7 7 7 7 8 7 7 7 7 7 7 7 6 6 6 6 6 6 6 6 6 6 6 6 6 6 6 6 6 6
8 8 8 8 8 7 7 7 7 7 7 7 7 7 7 7 7 7 7 7 6 6 6 6 6 6 6 6 6 6 5 5 5 5 5 5 5 5 5 5 5 5 5
8 7 7 7 7 7 7 7 7 7 6 6 6 7 7 6 6 6 6 6 6 6 6 6 6 6 6 5 5 5 5 5 5 5 5 5 5 5 5 5 5 5 5
7 7 7 7 6 6 6 6 6 6 6 6 6 6 6 6 6 5 5 5 5 5 5 5 5 5 5 5 5 5 5 5 5 5 4 4 4 4 4 4 4 4 5
7 6 6 6 6 6 6 6 6 5 5 5 5 5 5 5 5 5 5 5 5 5 5 5 4 5 5 4 4 4 4 4 4 4 4 4 4 4 4 4 4 4 4
6 6 6 6 6 5 5 5 5 5 5 5 5 5 5 4 4 4 4 4 4 4 4 4 4 4 4 4 4 4 4 4 4 4 4 4 4 4 4 4 4 4 4
5 5 5 5 5 5 5 5 5 5 4 4 4 4 4 4 4 4 4 4 4 4 4 4 4 4 4 4 4 4 4 3 4 4 4 3 3 3 3 3 3 3 3
5 5 5 5 5 4 4 4 4 4 4 4 4 4 4 4 4 4 4 4 4 4 4 4 4 4 4 3 3 3 3 3 3 3 3 3 3 3 3 3 3 3 3
4 4 4 4 4 4 4 4 4 3 3 3 3 3 3 3 3 3 3 3 3 3 3 3 3 3 3 3 3 3 3 3 3 3 3 3 3 3 3 3 2 2 2
4 4 4 3 3 3 3 3 3 3 3 3 3 3 3 3 3 3 3 3 3 3 3 3 3 3 3 3 3 3 3 3 3 3 2 2 2 2 2 2 2 2 2
Wind_Speed
5 6 5 5 5 4 4 4 4 4 4 4 4 4 3 3 3 3 3 3 3 3 4 4 4 3 2 2 2 2 2 2 2 2 2 2 2 2 1 1 1 1 3
5 5 5 5 5 5 5 5 5 4 4 4 4 4 3 3 3 4 4 4 3 3 3 3 3 3 3 3 3 3 3 3 3 3 2 2 2 2 1 1 1 1 1
4 5 5 5 5 5 5 5 5 4 4 4 4 4 3 3 3 3 4 3 3 3 3 3 3 3 4 3 3 3 3 3 3 3 3 2 2 2 2 2 2 2 1
3 4 4 5 5 5 5 4 5 4 4 4 4 4 3 3 3 3 4 4 3 3 3 4 3 4 4 3 3 4 3 4 4 3 3 3 3 3 3 3 2 2 2
3 3 3 3 3 4 4 4 4 4 4 4 3 3 3 2 2 3 3 4 3 3 3 3 3 1 2 2 2 3 4 4 4 4 4 3 3 3 4 3 3 3 3
2 3 2 3 3 3 3 3 3 3 3 3 3 3 3 2 1 1 3 3 3 3 3 3 3 2 2 2 1 1 2 4 4 4 4 4 4 4 3 4 4 4 3
2 2 3 3 3 3 3 3 3 3 3 3 3 3 3 2 3 2 3 3 3 3 3 3 2 2 3 3 4 5 3 2 3 5 5 4 4 4 4 5 4 4 4
2 2 2 3 3 3 3 3 3 3 3 3 3 4 3 2 3 2 3 4 4 4 4 4 3 3 3 3 4 4 4 3 3 4 4 4 4 3 4 4 4 4 3
2 3 3 3 3 4 4 4 3 3 3 3 3 3 3 2 3 2 3 3 3 4 4 4 3 4 2 3 4 5 4 3 2 1 1 1 2 2 3 3 4 4 4
3 3 3 3 3 4 4 4 3 3 3 3 3 3 3 3 3 3 4 3 3 3 3 3 2 3 3 4 5 5 5 4 4 4 4 3 4 3 4 5 5 5 4
3 3 3 3 3 4 3 3 3 3 4 4 3 3 3 3 3 3 3 3 3 3 3 3 2 2 4 5 6 5 4 4 5 4 4 4 4 4 4 5 5 5 5
2 3 3 3 3 3 3 3 3 3 4 4 4 4 3 3 2 3 4 3 3 4 4 3 2 2 3 4 4 2 3 4 4 4 4 4 4 4 4 5 5 5 5
3 3 3 3 3 3 4 4 3 4 4 4 4 4 3 3 2 3 4 4 4 4 3 1 0 2 2 3 3 3 5 5 4 4 5 5 4 4 4 4 5 5 5
4 4 4 4 3 3 3 4 4 4 4 4 4 4 4 3 3 2 3 3 3 3 2 1 2 2 2 1 2 3 4 4 4 4 4 4 4 4 4 4 4 3 4
4 4 4 3 3 3 3 3 4 4 4 4 4 4 4 4 3 2 2 3 3 3 2 2 2 2 2 2 2 3 3 3 4 4 4 4 4 4 4 4 4 4 5
3 3 3 3 3 3 3 2 1 2 0 1 2 3 3 2 1 2 3 2 2 3 3 3 3 3 4 4 4 3 3 4 4 4 4 4 4 4 4 4 4 5 5
4 3 2 3 3 3 4 4 3 2 2 2 3 3 3 2 1 3 3 2 3 4 3 4 4 4 4 4 4 4 4 4 4 4 4 5 5 5 5 5 5 5 5
4 3 3 3 3 3 4 4 4 3 3 3 3 4 3 3 3 3 3 3 2 4 4 4 5 4 4 4 4 4 5 4 4 5 5 5 5 5 5 5 5 6 6
3 3 3 3 3 3 3 3 3 4 4 3 3 2 3 3 3 3 4 4 4 4 5 5 5 5 5 5 5 5 5 5 5 5 5 5 6 6 6 6 6 6 6
3 3 3 3 3 3 3 3 4 4 4 4 4 3 2 2 3 3 4 4 4 5 5 5 5 5 5 5 5 5 5 5 5 5 6 6 6 6 7 7 7 6 6
3 3 4 4 3 4 4 4 4 4 4 4 4 3 3 4 4 5 4 5 5 5 5 5 5 5 5 5 5 6 6 6 6 6 6 6 6 6 6 7 7 7 6
3 3 3 3 3 4 4 4 4 5 5 5 5 4 4 5 5 5 5 6 6 6 6 6 6 6 6 6 6 6 7 7 6 6 6 6 6 6 6 7 7 7 7
3 3 3 4 4 4 4 4 4 5 5 5 5 5 5 5 6 6 6 6 6 6 6 6 6 6 6 7 7 7 7 8 7 7 7 6 7 7 7 7 8 8 8
3 4 4 4 4 4 4 4 5 5 5 5 6 6 6 6 6 7 7 6 6 6 6 6 7 8 9 8 8 8 9 9 8 8 9 8 7 7 7 8 8 9 9
4 4 4 5 5 4 4 5 5 5 5 6 6 6 6 6 7 7 7 7 7 7 8 7 7 8 10 11 10 9 9 9 9 8 8 8 9 9 8 9 8 8 8
4 4 4 5 5 4 4 5 5 6 6 6 6 7 7 6 6 7 7 7 7 7 7 7 9 10 11 11 12 11 10 10 10 11 9 8 8 8 8 8 9 9 9
Wind_Direction
211 211 208 208 205 206 213 219 222 225 220 224 229 231 228 232 238 237 247 246 246 234 221 224 219 214 209 206 211 220 230 225 205 193 174 176 179 180 152 164 140 161 120
214 212 209 204 203 207 211 215 218 220 223 228 229 228 224 230 241 244 245 246 247 248 238 228 221 202 214 218 214 215 219 223 215 207 194 193 203 198 199 204 194 180 122
204 209 210 207 204 205 211 212 217 217 218 221 224 230 225 228 232 239 246 248 248 248 245 240 233 222 219 216 217 219 218 212 214 214 209 197 210 205 206 213 211 202 181
195 203 210 213 209 209 208 211 216 215 216 220 223 227 231 231 232 235 243 247 248 250 248 244 242 238 238 231 222 221 216 207 204 209 207 208 213 218 219 217 222 209 218
198 203 209 213 213 212 205 205 209 212 216 219 218 222 225 227 233 237 239 247 247 244 246 244 246 271 339 281 251 228 211 208 205 209 212 218 220 216 226 230 235 237 222
207 212 208 205 207 210 208 201 204 207 212 215 217 218 219 217 124 263 258 237 243 241 243 239 223 208 195 193 228 270 251 226 217 211 219 225 230 232 232 232 234 235 240
216 213 206 201 206 212 205 201 204 208 212 219 215 219 224 204 149 187 242 243 244 245 245 240 228 218 211 208 191 192 209 246 256 243 235 238 239 234 231 234 236 242 247
229 221 213 206 206 205 205 211 215 219 215 218 223 223 221 199 156 194 236 235 239 241 243 245 235 221 208 223 215 211 214 216 226 233 244 254 259 254 248 245 247 247 249
239 238 226 218 208 204 209 215 217 216 218 223 226 231 226 203 148 171 233 240 239 240 241 243 244 236 185 240 227 220 216 216 192 181 328 309 343 319 262 240 233 230 239
246 243 237 226 218 216 217 217 215 213 217 221 222 229 230 227 157 169 232 236 239 239 240 236 237 249 200 220 229 226 226 229 228 215 216 220 226 224 224 233 237 239 244
254 253 246 236 230 229 223 217 213 213 218 224 225 231 233 235 183 179 220 239 243 249 247 246 233 181 208 228 246 240 237 241 235 233 233 232 233 233 230 230 235 245 247
240 243 241 235 232 224 214 218 217 215 219 226 231 234 238 233 217 200 212 244 273 247 250 256 246 177 221 235 243 233 220 235 234 231 234 234 237 240 241 238 238 239 248
231 240 243 236 232 227 218 218 217 219 224 230 232 235 237 241 225 197 210 228 254 255 255 300 270 196 223 232 235 216 216 232 233 236 241 244 245 249 248 244 246 244 253
239 244 238 236 238 230 221 216 216 219 223 228 231 235 239 239 243 234 234 233 228 243 249 177 168 201 231 249 219 223 236 243 244 247 254 253 249 244 242 242 240 237 246
243 242 241 240 243 238 226 226 227 229 231 231 233 234 233 236 243 249 231 234 235 237 230 229 231 228 235 241 244 247 242 237 239 246 249 252 250 248 249 244 242 240 243
247 243 241 244 248 238 218 213 196 240 251 256 277 267 256 267 169 191 227 242 215 180 200 223 232 235 239 242 242 243 245 247 245 244 245 246 244 244 248 247 243 241 245
248 244 242 244 248 239 223 224 236 235 213 227 239 240 255 274 196 198 209 201 181 179 212 230 237 244 247 247 246 246 247 248 246 243 243 244 243 242 242 243 241 243 245
248 240 242 245 247 250 233 232 236 242 248 254 232 217 228 229 222 210 187 173 203 209 235 241 244 247 247 246 246 250 252 249 244 244 244 243 241 240 241 241 240 242 246
256 246 244 251 252 253 244 238 240 241 246 253 260 235 216 223 216 198 183 216 227 234 241 246 249 249 249 251 249 247 248 249 248 244 244 245 242 239 240 242 243 243 245
262 257 252 253 251 253 247 239 240 244 245 248 250 253 239 237 242 227 227 240 242 245 247 249 250 251 250 253 255 251 248 248 248 247 247 245 245 243 241 242 244 243 242
261 255 240 249 251 253 251 246 247 246 249 255 258 250 229 233 238 238 238 243 245 248 250 251 250 250 248 248 249 248 248 248 247 247 248 248 248 249 248 244 243 243 244
254 256 256 256 261 259 258 249 247 249 253 257 264 256 227 240 243 242 243 247 248 250 251 251 250 248 245 243 244 246 248 250 248 246 245 245 244 245 248 246 242 241 242
258 260 263 266 267 259 253 252 253 254 256 258 259 259 249 248 251 251 251 251 253 254 255 252 251 252 251 248 247 247 246 247 247 244 242 244 245 244 244 247 246 244 243
267 265 267 270 267 257 252 254 257 258 259 261 262 260 257 255 255 254 253 253 253 253 254 254 253 252 252 253 249 246 247 249 251 248 244 242 243 245 244 245 247 247 243
276 273 272 273 269 261 257 256 258 258 260 262 263 264 263 259 258 258 257 256 256 256 255 256 257 255 252 251 252 251 247 244 248 253 249 244 242 242 244 244 245 248 250
281 279 276 275 270 262 259 258 259 262 262 263 263 263 262 262 262 261 260 258 258 259 259 259 256 258 260 256 253 251 246 242 241 244 248 245 242 242 242 243 245 244 248
Height
1525 1526 1527 1527 1528 1529 1529 1530 1531 1531 1532 1533 1533 1533 1534 1534 1534 1534 1534 1534 1534 1535 1534 1535 1535 1535 1535 1535 1535 1535 1536 1537 1537 1537 1537 1537 1537 1537 1537 1537 1536 1536 1535
1522 1523 1524 1524 1525 1526 1527 1528 1528 1529 1529 1530 1530 1531 1531 1531 1532 1532 1532 1532 1532 1532 1533 1533 1533 1533 1533 1533 1533 1534 1534 1534 1535 1535 1535 1535 1536 1536 1536 1535 1535 1535 1534
1519 1520 1521 1522 1522 1523 1524 1525 1526 1526 1527 1527 1528 1528 1529 1529 1529 1530 1530 1530 1530 1530 1530 1531 1531 1531 1531 1531 1531 1532 1532 1532 1533 1533 1533 1533 1534 1534 1534 1534 1534 1533 1533
1516 1517 1518 1519 1519 1520 1521 1522 1523 1524 1524 1525 1525 1526 1526 1526 1527 1527 1528 1528 1528 1528 1528 1528 1528 1529 1529 1529 1529 1529 1530 1530 1530 1531 1531 1532 1532 1532 1532 1532 1532 1532 1531
1514 1514 1515 1516 1516 1517 1518 1519 1520 1521 1522 1522 1523 1523 1524 1524 1524 1525 1525 1525 1525 1525 1525 1525 1525 1525 1526 1526 1527 1527 1527 1528 1528 1528 1529 1529 1530 1529 1530 1530 1530 1530 1529
1511 1512 1512 1513 1513 1514 1515 1516 1517 1518 1519 1519 1520 1521 1521 1521 1521 1522 1522 1522 1523 1523 1523 1523 1523 1523 1523 1523 1524 1524 1525 1525 1526 1526 1527 1527 1527 1527 1527 1527 1527 1528 1528
1509 1510 1510 1510 1511 1512 1512 1513 1514 1515 1516 1517 1517 1518 1518 1519 1519 1519 1519 1519 1520 1520 1520 1520 1520 1520 1520 1521 1521 1521 1522 1522 1523 1524 1524 1524 1525 1525 1525 1525 1524 1525 1525
1507 1507 1508 1508 1508 1509 1509 1510 1511 1512 1513 1513 1514 1515 1515 1515 1516 1516 1516 1516 1517 1517 1517 1517 1517 1517 1517 1518 1518 1519 1519 1519 1520 1520 1521 1521 1521 1521 1521 1521 1521 1521 1521
1505 1505 1506 1506 1506 1506 1506 1507 1508 1509 1510 1511 1511 1512 1512 1512 1513 1513 1513 1514 1514 1514 1514 1514 1514 1514 1514 1515 1515 1516 1516 1516 1516 1516 1517 1517 1518 1518 1518 1518 1518 1518 1518
1503 1503 1503 1503 1503 1503 1503 1504 1505 1506 1507 1508 1508 1509 1509 1509 1510 1510 1510 1511 1511 1511 1511 1511 1511 1511 1511 1511 1512 1513 1513 1513 1513 1513 1513 1514 1514 1514 1514 1514 1514 1515 1514
1500 1500 1500 1500 1500 1501 1501 1502 1502 1503 1504 1505 1505 1505 1506 1506 1506 1507 1507 1507 1508 1508 1508 1508 1508 1507 1508 1508 1508 1509 1509 1510 1510 1510 1510 1510 1510 1510 1510 1510 1510 1510 1510
1497 1497 1497 1497 1497 1498 1498 1499 1499 1500 1501 1501 1502 1502 1502 1503 1503 1503 1504 1504 1504 1504 1504 1504 1504 1504 1504 1504 1504 1505 1505 1506 1506 1507 1507 1506 1506 1506 1506 1506 1506 1506 1506
1494 1494 1494 1494 1494 1495 1495 1495 1496 1496 1497 1497 1498 1498 1499 1499 1499 1499 1500 1500 1500 1500 1500 1500 1500 1500 1500 1500 1500 1501 1501 1502 1502 1502 1503 1503 1503 1503 1502 1502 1502 1502 1502
1491 1491 1491 1491 1491 1491 1491 1491 1492 1492 1493 1494 1494 1494 1494 1495 1495 1495 1495 1496 1496 1496 1496 1496 1496 1496 1496 1496 1496 1496 1497 1497 1498 1498 1498 1498 1498 1498 1498 1498 1498 1498 1497
1488 1488 1488 1488 1487 1487 1488 1488 1488 1489 1489 1489 1490 1490 1490 1490 1491 1491 1491 1491 1492 1492 1492 1492 1492 1492 1492 1492 1492 1492 1492 1492 1493 1493 1493 1493 1494 1494 1494 1494 1493 1493 1493
1485 1485 1485 1484 1484 1484 1484 1484 1484 1485 1485 1485 1486 1486 1486 1486 1486 1487 1487 1487 1488 1488 1488 1488 1488 1488 1488 1488 1488 1488 1488 1488 1488 1488 1488 1489 1489 1489 1489 1489 1489 1489 1489
1481 1481 1481 1481 1480 1480 1480 1480 1481 1481 1481 1481 1481 1481 1481 1481 1482 1482 1482 1483 1483 1483 1483 1483 1483 1483 1483 1483 1483 1483 1483 1483 1483 1484 1484 1484 1484 1484 1484 1484 1484 1484 1484
1477 1477 1477 1477 1477 1477 1477 1477 1477 1477 1477 1477 1477 1477 1477 1477 1477 1477 1478 1478 1478 1478 1478 1478 1478 1478 1478 1478 1478 1478 1479 1479 1479 1479 1479 1479 1479 1479 1479 1479 1479 1479 1479
1474 1474 1474 1473 1473 1473 1473 1473 1473 1473 1473 1473 1473 1473 1473 1473 1473 1473 1473 1473 1473 1473 1473 1473 1473 1473 1473 1473 1473 1473 1473 1473 1473 1474 1474 1474 1474 1474 1474 1474 1474 1474 1475
1470 1470 1470 1470 1469 1469 1469 1469 1469 1469 1469 1469 1468 1468 1468 1468 1468 1468 1468 1468 1468 1468 1468 1468 1468 1468 1468 1468 1468 1468 1468 1468 1468 1468 1468 1468 1468 1468 1468 1469 1469 1469 1469
1466 1466 1466 1465 1465 1465 1465 1465 1465 1465 1464 1464 1464 1464 1463 1463 1463 1463 1463 1463 1463 1463 1463 1463 1463 1463 1463 1462 1462 1462 1462 1462 1462 1462 1462 1463 1463 1463 1463 1463 1463 1463 1463
1462 1462 1462 1461 1461 1461 1460 1460 1460 1460 1460 1460 1459 1459 1459 1458 1458 1458 1458 1458 1458 1458 1458 1458 1458 1457 1457 1457 1457 1456 1456 1456 1456 1457 1457 1457 1457 1457 1457 1457 1457 1458 1458
1458 1458 1457 1457 1457 1456 1456 1455 1455 1455 1455 1455 1454 1454 1453 1453 1453 1452 1452 1452 1452 1452 1452 1452 1452 1451 1451 1451 1451 1450 1450 1450 1450 1451 1451 1451 1451 1451 1451 1451 1451 1451 1451
1454 1454 1453 1452 1452 1451 1451 1451 1451 1451 1450 1450 1449 1449 1448 1448 1448 1447 1447 1447 1446 1446 1446 1446 1445 1445 1445 1444 1444 1444 1444 1444 1444 1444 1444 1444 1444 1444 1444 1444 1444 1444 1445
1450 1449 1449 1448 1447 1447 1446 1446 1446 1446 1445 1445 1444 1444 1443 1443 1442 1442 1442 1441 1441 1440 1440 1440 1439 1439 1438 1438 1438 1437 1438 1438 1438 1438 1438 1438 1437 1437 1437 1438 1438 1438 1438
1446 1445 1444 1444 1443 1442 1442 1441 1441 1441 1440 1440 1439 1438 1438 1437 1436 1436 1435 1435 1434 1434 1434 1433 1433 1432 1432 1431 1431 1431 1431 1431 1431 1431 1431 1431 1430 1430 1431 1431 1431 1431 1431